Vorticity
7 4 7 5 7 7 9 2 3 2 4 1 11 10 18 -0 4 -1 15 6 11 5 5 4 6 6 6 5 8 7 5 9 9 1 1 4 4 10 8 5 14 8 0 7 5 7 6 5 5
9 7 6 5 3 1 8 7 1 -1 10 9 10 6 4 -3 -4 2 7 8 8 4 4 5 6 6 7 7 9 7 6 5 6 7 3 11 8 9 4 6 9 11 11 8 6 7 6 6 5
7 7 7 12 11 1 10 15 2 6 4 6 22 9 3 2 12 6 7 12 10 4 5 5 6 6 9 9 10 7 6 6 5 3 11 10 8 7 4 6 6 7 6 6 6 5 5 5 4
5 9 9 5 -3 7 4 16 -1 5 7 6 5 3 1 6 12 4 8 13 7 4 6 5 5 7 9 12 10 7 7 6 5 4 5 4 8 8 7 7 6 6 5 5 5 5 5 5 5
5 5 9 4 10 -7 2 15 13 2 -0 7 2 -2 -1 7 17 18 8 10 8 5 7 5 5 6 8 13 10 8 7 7 5 5 5 5 5 6 6 5 5 5 5 5 5 5 5 6 7
5 4 0 12 3 -1 8 -1 11 8 10 -1 4 6 -3 16 16 8 17 9 5 4 5 5 5 5 7 12 10 7 6 6 7 6 6 6 5 4 4 4 4 4 4 5 5 6 5 5 5
4 6 4 6 4 16 8 11 13 10 0 5 9 9 5 13 16 12 8 8 5 4 5 5 6 5 5 10 11 7 6 6 6 5 5 5 4 3 3 3 3 4 4 5 4 4 4 5 5
3 4 6 7 6 7 -2 17 22 8 1 3 4 12 3 17 12 12 9 6 4 3 4 5 5 5 5 7 11 10 7 6 5 5 5 5 4 4 4 4 5 4 4 4 4 4 4 4 4
4 1 1 1 10 4 5 8 17 15 2 3 5 2 6 -3 10 12 15 8 4 5 4 5 5 4 5 5 6 9 9 8 7 6 5 4 4 4 4 4 4 4 4 4 4 4 3 3 3
5 3 4 1 9 -5 14 -9 8 13 12 8 4 -4 6 1 5 10 20 12 7 5 5 4 6 6 5 5 5 5 6 8 8 7 7 6 6 5 5 4 4 4 5 4 4 4 3 3 3
5 2 5 1 5 12 10 -9 -1 6 12 7 5 -0 5 5 2 7 12 10 7 6 5 5 5 5 6 6 5 5 5 5 5 6 6 6 6 6 6 6 6 6 6 5 5 4 4 4 4
4 5 6 1 2 -5 0 7 2 1 16 11 6 2 9 -3 12 8 9 13 7 6 4 4 6 5 5 6 6 5 4 4 4 5 5 6 5 5 5 5 5 6 5 5 5 5 5 7 7
5 4 5 3 6 7 7 4 7 4 9 14 5 6 5 -2 -3 -5 2 4 8 5 4 5 5 6 6 6 6 6 5 4 4 4 5 4 5 5 4 5 5 5 5 4 17 7 12 7 3
10 11 7 3 5 4 5 7 5 5 4 12 10 5 8 -4 13 12 8 7 10 5 4 4 4 6 7 6 5 6 6 5 4 4 5 5 3 4 11 8 3 12 5 10 8 8 4 2 1
14 11 7 6 2 5 5 3 12 9 7 7 20 7 4 6 6 15 7 10 12 9 4 4 4 4 5 5 9 6 6 9 9 5 5 5 6 5 5 5 8 7 5 4 5 3 2 2 2
19 13 7 28 2 7 5 13 4 4 12 2 6 8 8 8 9 16 13 7 6 8 7 4 3 4 3 5 9 1 3 4 3 3 3 5 8 8 7 6 4 4 4 5 4 1 1 1 10
16 4 16 2 16 12 8 9 1 5 11 6 5 5 4 -1 9 8 13 6 4 9 10 5 4 4 4 6 4 3 4 3 4 4 5 6 7 7 7 3 3 3 4 3 5 1 5 5 8
-1 5 2 7 44 6 11 12 20 6 6 9 2 3 5 -1 13 -9 7 9 3 4 8 10 5 5 5 4 4 2 4 4 5 6 5 6 6 6 5 7 5 2 -2 11 1 9 8 6 4
21 24 14 26 -2 32 1 -3 2 12 7 11 9 1 3 4 5 16 -3 10 8 3 1 7 5 6 5 5 6 4 3 2 4 5 5 6 5 4 6 5 5 4 11 1 6 6 10 7 6
3 5 5 4 21 -6 2 31 17 -0 18 7 9 0 -0 2 8 14 7 -1 0 9 -1 -1 2 5 6 6 5 6 3 2 3 4 4 5 4 4 4 5 6 8 3 8 7 15 10 6 14
5 5 10 -3 30 9 7 13 11 17 5 13 6 -2 -0 3 12 20 21 2 12 -1 16 -4 8 4 13 11 9 6 4 2 5 7 5 5 4 4 5 6 6 9 10 7 15 10 8 11 14
15 10 12 16 -3 3 17 21 49 -3 15 5 18 7 5 6 19 18 8 1 2 9 10 5 7 8 11 15 11 8 5 2 4 5 5 4 4 4 6 6 7 11 9 11 10 11 11 15 9
8 23 12 1 6 -2 23 -5 29 44 -11 9 6 7 7 10 3 5 4 -1 10 10 15 10 3 9 7 7 11 11 6 4 2 4 7 5 4 4 7 6 9 10 10 10 10 11 15 10 8
1 4 7 11 10 14 6 -13 29 15 24 18 15 7 5 7 1 4 1 6 9 11 13 9 12 5 10 6 4 6 8 7 5 4 4 6 5 4 7 7 9 11 11 10 12 13 12 9 7
-17 12 3 2 8 -2 36 16 -22 5 17 26 18 14 9 8 4 2 -1 -5 1 2 7 9 2 9 10 9 7 3 -0 1 11 6 3 7 7 5 8 9 9 11 11 11 11 13 10 8 7
15 -21 -12 -1 12 10 16 11 -5 23 12 22 22 17 18 9 13 8 8 8 7 6 1 2 4 5 2 3 9 7 4 1 3 8 10 4 9 4 8 9 10 10 12 11 12 11 9 7 6
22 5 -25 -0 16 9 10 13 10 4 11 24 9 -12 22 13 17 13 8 6 7 11 9 5 -2 9 14 13 9 2 3 9 13 5 8 13 5 5 7 8 8 10 10 12 11 10 9 7 7
7 4 14 -3 4 2 13 14 2 11 8 12 21 28 14 14 24 7 18 13 4 5 6 4 5 5 6 14 16 14 -1 -1 8 11 13 16 4 5 7 8 9 10 9 11 11 10 8 7 7
19 10 5 17 -30 7 3 15 4 10 9 7 7 9 13 18 20 24 31 18 13 11 9 6 6 9 5 -3 -4 11 13 7 10 15 18 13 9 6 7 8 11 9 9 10 11 10 8 8 7
20 32 4 -9 3 -4 8 20 6 9 10 12 8 7 1 4 8 9 15 23 28 8 4 5 2 4 7 3 -1 3 19 10 7 9 18 12 16 6 7 8 10 8 10 13 10 9 8 7 7
Height
3141 3142 3144 3146 3152 3147 3146 3146 3145 3145 3145 3144 3145 3147 3150 3151 3152 3156 3153 3152 3153 3153 3154 3155 3157 3157 3158 3159 3160 3161 3161 3161 3161 3163 3164 3165 3166 3167 3169 3171 3173 3175 3177 3178 3179 3181 3182 3183 3185
3139 3140 3142 3143 3146 3144 3144 3144 3144 3144 3143 3144 3144 3146 3148 3150 3150 3151 3152 3153 3153 3153 3154 3156 3157 3157 3159 3160 3161 3162 3162 3163 3163 3166 3167 3167 3168 3170 3173 3174 3175 3176 3177 3179 3181 3182 3184 3185 3186
3137 3138 3141 3141 3141 3141 3142 3141 3142 3142 3142 3143 3144 3145 3147 3149 3149 3150 3152 3153 3154 3153 3154 3156 3157 3159 3159 3160 3163 3164 3165 3165 3165 3167 3169 3170 3171 3172 3174 3175 3177 3178 3180 3181 3182 3184 3186 3187 3189
3134 3136 3139 3138 3138 3139 3140 3140 3140 3141 3141 3142 3144 3146 3147 3147 3147 3148 3151 3152 3154 3154 3155 3156 3158 3159 3160 3161 3164 3165 3166 3167 3167 3169 3171 3172 3174 3175 3176 3177 3179 3179 3181 3182 3185 3186 3188 3189 3191
3132 3133 3134 3134 3136 3137 3138 3138 3139 3140 3140 3142 3143 3144 3144 3144 3144 3147 3149 3152 3154 3153 3155 3156 3158 3160 3161 3162 3164 3166 3168 3170 3171 3171 3173 3174 3176 3178 3179 3180 3181 3182 3184 3186 3187 3189 3191 3192 3193
3129 3130 3131 3131 3133 3135 3136 3137 3138 3138 3139 3141 3142 3143 3143 3142 3143 3146 3149 3152 3153 3154 3156 3156 3158 3160 3161 3164 3166 3168 3170 3171 3173 3174 3176 3177 3178 3179 3181 3182 3183 3184 3186 3187 3189 3190 3191 3192 3192
3125 3127 3127 3129 3131 3132 3134 3135 3136 3137 3139 3141 3142 3142 3143 3141 3142 3144 3148 3151 3152 3154 3156 3157 3158 3160 3162 3164 3167 3169 3171 3173 3174 3176 3177 3179 3180 3181 3183 3184 3185 3187 3188 3189 3190 3192 3192 3193 3194
3121 3124 3124 3125 3127 3130 3132 3132 3133 3134 3137 3139 3141 3141 3142 3141 3141 3142 3147 3150 3151 3153 3155 3157 3159 3161 3163 3166 3168 3170 3171 3173 3175 3177 3179 3181 3182 3183 3185 3187 3188 3189 3190 3191 3192 3193 3194 3194 3195
3117 3119 3120 3123 3125 3128 3129 3129 3130 3132 3135 3136 3139 3140 3139 3141 3141 3142 3147 3149 3150 3153 3154 3157 3159 3161 3163 3166 3169 3171 3173 3175 3177 3179 3180 3182 3183 3185 3187 3188 3189 3190 3191 3192 3193 3193 3194 3194 3195
3111 3113 3116 3121 3123 3125 3126 3127 3128 3130 3132 3133 3137 3139 3139 3140 3141 3143 3147 3149 3150 3153 3154 3157 3160 3162 3164 3167 3170 3172 3174 3176 3178 3180 3181 3183 3185 3187 3188 3189 3190 3191 3192 3193 3193 3193 3194 3194 3194
3106 3107 3114 3117 3119 3121 3123 3124 3126 3127 3127 3130 3135 3138 3139 3140 3141 3143 3147 3150 3151 3153 3155 3157 3160 3161 3165 3167 3170 3172 3174 3176 3178 3180 3182 3184 3185 3187 3188 3189 3190 3191 3192 3193 3193 3193 3194 3194 3194
3101 3105 3109 3112 3115 3117 3119 3121 3123 3123 3126 3128 3132 3135 3137 3139 3142 3143 3146 3149 3149 3151 3154 3157 3160 3162 3164 3167 3170 3172 3174 3176 3178 3180 3182 3184 3185 3186 3188 3189 3190 3191 3192 3192 3192 3192 3192 3192 3192
3096 3100 3105 3108 3110 3113 3116 3118 3119 3121 3121 3123 3127 3129 3133 3137 3139 3142 3144 3147 3150 3151 3153 3156 3160 3162 3163 3167 3170 3172 3173 3175 3177 3179 3181 3182 3184 3185 3187 3188 3189 3190 3190 3191 3191 3191 3191 3191 3191
3091 3095 3099 3101 3105 3109 3112 3113 3114 3117 3118 3119 3121 3126 3130 3133 3136 3138 3141 3144 3149 3151 3153 3155 3159 3162 3164 3165 3169 3171 3173 3174 3176 3178 3180 3182 3182 3184 3185 3186 3187 3187 3188 3189 3189 3189 3189 3189 3189
3087 3090 3093 3095 3099 3103 3108 3107 3108 3112 3114 3115 3117 3120 3124 3129 3132 3134 3139 3142 3147 3151 3152 3154 3157 3159 3162 3166 3168 3170 3172 3174 3176 3178 3179 3181 3182 3183 3183 3184 3185 3186 3186 3186 3187 3187 3187 3187 3186
3083 3086 3087 3090 3094 3098 3103 3102 3106 3107 3110 3112 3113 3115 3120 3125 3129 3133 3134 3138 3141 3146 3151 3152 3155 3158 3161 3163 3166 3169 3172 3173 3175 3176 3178 3179 3180 3181 3182 3183 3184 3184 3185 3185 3185 3185 3185 3184 3183
3079 3079 3080 3085 3088 3092 3094 3096 3101 3103 3105 3108 3110 3112 3116 3121 3125 3129 3131 3134 3138 3142 3148 3150 3154 3157 3160 3162 3164 3166 3170 3172 3174 3176 3177 3179 3180 3181 3181 3182 3182 3182 3183 3182 3182 3182 3182 3181 3181
3072 3075 3077 3079 3082 3085 3087 3090 3095 3098 3100 3103 3106 3107 3110 3115 3122 3126 3129 3131 3134 3139 3144 3147 3151 3154 3157 3160 3162 3165 3167 3170 3172 3174 3176 3177 3178 3179 3180 3180 3180 3180 3180 3179 3179 3179 3178 3177 3177
3070 3072 3074 3076 3079 3080 3083 3086 3090 3092 3094 3096 3099 3103 3106 3111 3117 3120 3124 3127 3131 3137 3140 3143 3147 3151 3154 3157 3160 3163 3166 3168 3169 3171 3173 3175 3176 3176 3176 3177 3177 3176 3175 3175 3175 3174 3174 3174 3173
3067 3069 3071 3073 3075 3077 3079 3080 3084 3086 3089 3093 3096 3098 3100 3105 3108 3112 3118 3123 3127 3133 3140 3142 3143 3147 3151 3153 3157 3159 3162 3164 3166 3168 3169 3171 3172 3172 3173 3173 3172 3172 3172 3170 3170 3169 3169 3170 3169
3062 3065 3067 3070 3071 3072 3075 3075 3076 3080 3085 3087 3089 3092 3094 3097 3103 3107 3113 3118 3124 3128 3134 3138 3140 3144 3147 3149 3151 3154 3156 3159 3162 3164 3165 3166 3168 3168 3168 3168 3168 3167 3167 3166 3165 3165 3166 3166 3166
3057 3061 3064 3065 3068 3070 3072 3070 3071 3074 3077 3081 3084 3086 3090 3094 3097 3102 3108 3113 3117 3122 3128 3130 3135 3136 3139 3143 3146 3150 3153 3156 3159 3159 3160 3162 3164 3164 3164 3164 3164 3163 3162 3162 3162 3162 3162 3162 3163
3053 3057 3061 3063 3065 3067 3067 3070 3065 3068 3070 3074 3079 3083 3087 3091 3095 3100 3105 3110 3113 3119 3121 3125 3128 3131 3135 3138 3142 3145 3148 3151 3152 3154 3156 3157 3159 3160 3159 3159 3159 3158 3157 3156 3157 3157 3158 3158 3159
3050 3054 3058 3060 3062 3062 3061 3065 3062 3064 3066 3071 3077 3080 3084 3088 3092 3096 3100 3104 3108 3111 3116 3120 3123 3126 3131 3134 3137 3140 3143 3145 3147 3150 3151 3152 3153 3155 3155 3154 3154 3154 3153 3152 3152 3153 3153 3154 3156
3044 3049 3054 3058 3058 3053 3055 3060 3060 3060 3061 3064 3068 3071 3074 3078 3084 3090 3095 3098 3102 3106 3110 3113 3117 3121 3126 3128 3131 3134 3137 3139 3141 3143 3146 3147 3148 3150 3150 3149 3148 3148 3149 3148 3148 3149 3151 3151 3152
3035 3041 3040 3043 3048 3049 3053 3054 3055 3055 3057 3060 3063 3066 3069 3071 3074 3078 3083 3089 3094 3099 3104 3109 3112 3116 3119 3121 3124 3127 3131 3133 3135 3138 3140 3142 3142 3143 3144 3144 3144 3144 3145 3145 3144 3145 3147 3149 3149
3031 3033 3039 3040 3043 3046 3049 3052 3053 3054 3054 3056 3059 3062 3065 3068 3071 3075 3078 3082 3086 3091 3097 3101 3104 3106 3111 3115 3117 3121 3124 3126 3128 3130 3132 3134 3136 3138 3138 3139 3139 3139 3140 3141 3140 3142 3143 3144 3146
3026 3031 3035 3036 3039 3041 3046 3046 3047 3051 3051 3053 3055 3058 3060 3063 3067 3070 3073 3076 3080 3084 3090 3095 3099 3101 3105 3107 3111 3114 3118 3119 3121 3123 3125 3127 3130 3132 3133 3134 3135 3135 3135 3136 3136 3138 3139 3140 3141
3021 3023 3026 3029 3031 3030 3039 3044 3044 3046 3048 3050 3052 3054 3056 3059 3062 3064 3067 3069 3073 3077 3080 3085 3089 3093 3098 3101 3104 3106 3110 3112 3114 3116 3117 3119 3123 3125 3127 3129 3130 3131 3131 3131 3132 3134 3135 3136 3138
3013 3016 3019 3021 3024 3028 3030 3041 3040 3042 3044 3046 3048 3051 3053 3055 3058 3060 3062 3064 3066 3069 3071 3075 3079 3083 3087 3091 3096 3099 3101 3103 3106 3109 3111 3113 3116 3119 3122 3123 3125 3126 3126 3128 3127 3128 3130 3132 3133